• In Deutschland
  • Länderverzeichnis
  • Für 7 Tage
  • Wassertemperatur
  • Satellitenkarten
  • Wetterkarte
  • Widgets
  • user-avatar
    Anmelden

    Stündliche Wetter Abowian

    Heute, 23 Juli, Sonntag

    Zeit Temperatur Niederschläge Wind Luftdruck Luftfeuchtigkeit
    00:00 +24°C° 0 mm 3 m/S 671 mmHg 58%
    01:00 +22°C° 0 mm 3 m/S 671 mmHg 59%
    02:00 +22°C° 0 mm 3 m/S 671 mmHg 60%
    03:00 +21°C° 0 mm 2 m/S 670 mmHg 61%
    04:00 +23°C° 0 mm 2 m/S 671 mmHg 60%
    05:00 +23°C° 0 mm 2 m/S 671 mmHg 59%
    06:00 +23°C° 0 mm 2 m/S 671 mmHg 58%
    07:00 +25°C° 0 mm 2 m/S 671 mmHg 51%
    08:00 +28°C° 0 mm 2 m/S 671 mmHg 43%
    09:00 +30°C° 0 mm 2 m/S 671 mmHg 36%
    10:00 +31°C° 0 mm 2 m/S 671 mmHg 33%
    11:00 +34°C° 0 mm 2 m/S 671 mmHg 31%
    12:00 +35°C° 0 mm 2 m/S 670 mmHg 28%
    13:00 +35°C° 0 mm 2 m/S 670 mmHg 28%
    14:00 +36°C° 0 mm 2 m/S 670 mmHg 28%
    15:00 +36°C° 0 mm 2 m/S 669 mmHg 27%
    16:00 +35°C° 0,3 mm 3 m/S 669 mmHg 32%
    17:00 +34°C° 0,3 mm 4 m/S 669 mmHg 36%
    18:00 +33°C° 0,3 mm 4 m/S 669 mmHg 40%
    19:00 +30°C° 0 mm 4 m/S 669 mmHg 45%
    20:00 +27°C° 0 mm 4 m/S 669 mmHg 51%
    21:00 +25°C° 0 mm 4 m/S 669 mmHg 57%
    22:00 +23°C° 0 mm 4 m/S 669 mmHg 61%
    23:00 +24°C° 0 mm 3 m/S 669 mmHg 65%

    Morgen, 24 Juli, Montag

    Zeit Temperatur Niederschläge Wind Luftdruck Luftfeuchtigkeit
    00:00 +22°C° 0 mm 3 m/S 669 mmHg 69%
    01:00 +21°C° 0 mm 3 m/S 669 mmHg 71%
    02:00 +21°C° 0 mm 3 m/S 669 mmHg 74%
    03:00 +20°C° 0 mm 3 m/S 669 mmHg 76%
    04:00 +20°C° 0 mm 3 m/S 669 mmHg 75%
    05:00 +20°C° 0 mm 3 m/S 669 mmHg 74%
    06:00 +21°C° 0 mm 3 m/S 669 mmHg 73%
    07:00 +24°C° 0 mm 2 m/S 669 mmHg 64%
    08:00 +26°C° 0 mm 2 m/S 669 mmHg 56%
    09:00 +28°C° 0 mm 2 m/S 669 mmHg 48%
    10:00 +29°C° 0,2 mm 2 m/S 669 mmHg 44%
    11:00 +31°C° 0,2 mm 2 m/S 669 mmHg 39%
    12:00 +32°C° 0,2 mm 2 m/S 669 mmHg 35%
    13:00 +33°C° 0,1 mm 3 m/S 668 mmHg 35%
    14:00 +34°C° 0,1 mm 3 m/S 668 mmHg 34%
    15:00 +34°C° 0,1 mm 3 m/S 668 mmHg 33%
    16:00 +33°C° 0,7 mm 3 m/S 668 mmHg 36%
    17:00 +33°C° 0,7 mm 3 m/S 667 mmHg 40%
    18:00 +32°C° 0,7 mm 4 m/S 667 mmHg 43%
    19:00 +29°C° 0,2 mm 3 m/S 667 mmHg 49%
    20:00 +27°C° 0,2 mm 3 m/S 667 mmHg 55%
    21:00 +25°C° 0,2 mm 3 m/S 667 mmHg 62%
    22:00 +24°C° 0,1 mm 3 m/S 667 mmHg 64%
    23:00 +24°C° 0,1 mm 3 m/S 668 mmHg 66%

    übermorgen, 25 Juli, Dienstag

    Zeit Temperatur Niederschläge Wind Luftdruck Luftfeuchtigkeit
    00:00 +23°C° 0,1 mm 2 m/S 668 mmHg 68%
    01:00 +21°C° 0,1 mm 2 m/S 667 mmHg 69%
    02:00 +21°C° 0,1 mm 2 m/S 667 mmHg 70%
    03:00 +20°C° 0,1 mm 2 m/S 667 mmHg 71%
    04:00 +21°C° 0,1 mm 2 m/S 667 mmHg 70%
    05:00 +21°C° 0,1 mm 2 m/S 667 mmHg 68%
    06:00 +21°C° 0,1 mm 2 m/S 667 mmHg 66%
    07:00 +24°C° 0,1 mm 2 m/S 668 mmHg 59%
    08:00 +26°C° 0,1 mm 2 m/S 668 mmHg 52%
    09:00 +28°C° 0,1 mm 2 m/S 668 mmHg 45%
    10:00 +30°C° 0,2 mm 2 m/S 668 mmHg 41%
    11:00 +31°C° 0,2 mm 2 m/S 668 mmHg 37%
    12:00 +34°C° 0,2 mm 2 m/S 667 mmHg 33%
    13:00 +34°C° 0,1 mm 2 m/S 667 mmHg 32%
    14:00 +34°C° 0,1 mm 2 m/S 667 mmHg 31%
    15:00 +35°C° 0,1 mm 2 m/S 667 mmHg 30%
    16:00 +34°C° 0,6 mm 2 m/S 667 mmHg 33%
    17:00 +32°C° 0,6 mm 2 m/S 666 mmHg 36%
    18:00 +31°C° 0,6 mm 2 m/S 666 mmHg 38%
    19:00 +29°C° 0,3 mm 2 m/S 667 mmHg 45%
    20:00 +27°C° 0,3 mm 2 m/S 667 mmHg 52%
    21:00 +25°C° 0,3 mm 3 m/S 667 mmHg 58%
    22:00 +24°C° 0,2 mm 3 m/S 667 mmHg 60%
    23:00 +24°C° 0,2 mm 3 m/S 667 mmHg 62%

    26 Juli, Mittwoch

    Zeit Temperatur Niederschläge Wind Luftdruck Luftfeuchtigkeit
    00:00 +22°C° 0,2 mm 3 m/S 667 mmHg 64%
    01:00 +23°C° 0 mm 2 m/S 667 mmHg 64%
    02:00 +21°C° 0 mm 2 m/S 667 mmHg 65%
    03:00 +21°C° 0 mm 2 m/S 667 mmHg 65%
    04:00 +21°C° 0 mm 2 m/S 667 mmHg 64%
    05:00 +22°C° 0 mm 1 m/S 667 mmHg 63%
    06:00 +23°C° 0 mm 1 m/S 668 mmHg 62%
    07:00 +25°C° 0 mm 1 m/S 668 mmHg 53%
    08:00 +27°C° 0 mm 1 m/S 668 mmHg 45%
    09:00 +30°C° 0 mm 1 m/S 669 mmHg 36%
    10:00 +31°C° 0 mm 2 m/S 669 mmHg 33%
    11:00 +32°C° 0 mm 2 m/S 669 mmHg 29%
    12:00 +35°C° 0 mm 2 m/S 669 mmHg 25%
    13:00 +35°C° 0 mm 2 m/S 669 mmHg 24%
    14:00 +36°C° 0 mm 2 m/S 669 mmHg 22%
    15:00 +36°C° 0 mm 2 m/S 668 mmHg 21%
    16:00 +36°C° 0 mm 2 m/S 669 mmHg 24%
    17:00 +35°C° 0 mm 2 m/S 669 mmHg 27%
    18:00 +33°C° 0 mm 1 m/S 669 mmHg 29%
    19:00 +31°C° 0,1 mm 2 m/S 669 mmHg 38%
    20:00 +28°C° 0,1 mm 3 m/S 669 mmHg 46%
    21:00 +26°C° 0,1 mm 3 m/S 669 mmHg 54%
    22:00 +25°C° 0,1 mm 3 m/S 669 mmHg 57%
    23:00 +25°C° 0,1 mm 3 m/S 670 mmHg 59%

    27 Juli, Donnerstag

    Zeit Temperatur Niederschläge Wind Luftdruck Luftfeuchtigkeit
    00:00 +24°C° 0,1 mm 2 m/S 670 mmHg 61%
    01:00 +24°C° 0,1 mm 2 m/S 670 mmHg 62%
    02:00 +23°C° 0,1 mm 2 m/S 670 mmHg 62%
    03:00 +23°C° 0,1 mm 2 m/S 670 mmHg 63%
    04:00 +23°C° 0 mm 2 m/S 670 mmHg 62%
    05:00 +23°C° 0 mm 2 m/S 671 mmHg 61%
    06:00 +24°C° 0 mm 1 m/S 671 mmHg 60%
    07:00 +26°C° 0 mm 1 m/S 671 mmHg 53%
    08:00 +28°C° 0 mm 1 m/S 672 mmHg 45%
    09:00 +31°C° 0 mm 1 m/S 672 mmHg 38%
    10:00 +32°C° 0 mm 1 m/S 672 mmHg 34%
    11:00 +34°C° 0 mm 2 m/S 672 mmHg 30%
    12:00 +36°C° 0 mm 2 m/S 672 mmHg 27%
    13:00 +36°C° 0 mm 2 m/S 672 mmHg 25%
    14:00 +37°C° 0 mm 2 m/S 671 mmHg 24%
    15:00 +37°C° 0 mm 2 m/S 671 mmHg 23%
    16:00 +37°C° 0 mm 2 m/S 671 mmHg 26%
    17:00 +36°C° 0 mm 2 m/S 671 mmHg 29%
    18:00 +35°C° 0 mm 2 m/S 671 mmHg 31%
    19:00 +32°C° 0 mm 2 m/S 671 mmHg 39%
    20:00 +29°C° 0 mm 3 m/S 671 mmHg 46%
    21:00 +27°C° 0 mm 3 m/S 672 mmHg 53%
    22:00 +26°C° 0 mm 3 m/S 672 mmHg 54%
    23:00 +26°C° 0 mm 2 m/S 672 mmHg 54%

    28 Juli, Freitag

    Zeit Temperatur Niederschläge Wind Luftdruck Luftfeuchtigkeit
    00:00 +25°C° 0 mm 2 m/S 672 mmHg 55%
    01:00 +25°C° 0 mm 2 m/S 672 mmHg 56%
    02:00 +24°C° 0 mm 2 m/S 672 mmHg 57%
    03:00 +24°C° 0 mm 2 m/S 673 mmHg 59%
    04:00 +24°C° 0 mm 2 m/S 673 mmHg 58%
    05:00 +24°C° 0 mm 2 m/S 673 mmHg 58%
    06:00 +25°C° 0 mm 1 m/S 673 mmHg 57%
    07:00 +27°C° 0 mm 1 m/S 674 mmHg 50%
    08:00 +29°C° 0 mm 1 m/S 674 mmHg 43%
    09:00 +32°C° 0 mm 1 m/S 674 mmHg 35%
    10:00 +34°C° 0 mm 2 m/S 674 mmHg 32%
    11:00 +36°C° 0 mm 2 m/S 674 mmHg 29%
    12:00 +37°C° 0 mm 2 m/S 674 mmHg 25%
    13:00 +38°C° 0 mm 2 m/S 674 mmHg 25%
    14:00 +38°C° 0 mm 2 m/S 674 mmHg 24%
    15:00 +39°C° 0 mm 3 m/S 673 mmHg 23%
    16:00 +38°C° 0 mm 3 m/S 673 mmHg 26%
    17:00 +37°C° 0 mm 3 m/S 673 mmHg 30%
    18:00 +36°C° 0 mm 3 m/S 673 mmHg 33%
    19:00 +34°C° 0 mm 3 m/S 673 mmHg 39%
    20:00 +30°C° 0 mm 3 m/S 673 mmHg 45%
    21:00 +28°C° 0 mm 3 m/S 673 mmHg 51%
    22:00 +27°C° 0 mm 3 m/S 674 mmHg 52%
    23:00 +27°C° 0 mm 3 m/S 674 mmHg 52%
    Mehr zeigen